DW6162 Weather Reports


Display with metric or nautical units.
time (UTC)temp
F
wind
direction
speed
MPH
gust
MPH
rain 1hr
in
rain 24hr
in
rain mn
in
humidity
%
barometer
mb
20260509204504 53 149 1.0 6.0 0.00 0.69 0.56 94 1007.8
20260509203651 53 155 3.0 7.0 0.00 0.69 0.57 94 1007.2
20260509203102 53 173 3.0 8.0 0.00 0.69 0.56 95 1007.9
20260509201852 52 153 2.0 6.0 0.00 0.69 0.57 96 1007.3
20260509201502 51 160 1.0 6.0 0.00 0.69 0.56 96 1008.2
20260509200951 52 153 2.0 6.0 0.00 0.69 0.57 96 1007.6
20260509200051 52 146 2.0 5.0 0.00 0.69 0.57 97 1007.6
20260509195151 52 142 2.0 5.0 0.01 0.69 0.57 97 1007.6
20260509194502 51 121 2.0 4.0 0.01 0.69 0.56 97 1008.4
20260509194251 51 147 2.0 5.0 0.01 0.69 0.57 97 1007.6
20260509193104 50 119 2.0 5.0 0.02 0.69 0.56 98 1008.5
20260509192451 50 146 2.0 4.0 0.03 0.69 0.57 98 1007.7
20260509191551 50 150 2.0 6.0 0.04 0.69 0.57 98 1007.8
20260509191503 50 117 1.0 6.0 0.04 0.69 0.56 98 1008.6
20260509190651 50 151 2.0 5.0 0.05 0.69 0.57 98 1007.7
20260509190107 49 140 1.0 5.0 0.05 0.69 0.56 98 1008.4
20260509185752 50 153 1.0 4.0 0.05 0.69 0.57 98 1007.7
20260509184504 49 152 1.0 3.0 0.05 0.68 0.56 98 1008.5
20260509183951 50 146 1.0 4.0 0.05 0.68 0.56 98 1007.8
20260509183103 49 144 0.0 3.0 0.05 0.67 0.55 98 1008.6
20260509182151 50 148 2.0 4.0 0.04 0.65 0.53 98 1007.8
20260509181503 49 150 2.0 4.0 0.04 0.65 0.53 98 1008.6
20260509181251 50 150 1.0 4.0 0.05 0.65 0.53 98 1007.8
20260509180351 50 154 2.0 6.0 0.06 0.64 0.52 98 1007.8
20260509175451 50 148 2.0 6.0 0.07 0.64 0.52 98 1007.7
20260509174552 49 145 1.0 3.0 0.07 0.63 0.51 98 1007.8
20260509174503 49 354 0.0 3.0 0.07 0.63 0.51 98 1008.6
20260509173651 49 157 1.0 3.0 0.07 0.63 0.51 98 1007.8
20260509173119 49 163 2.0 3.0 0.06 0.62 0.50 98 1008.6
20260509172752 49 150 1.0 3.0 0.07 0.62 0.50 98 1007.8
20260509171505 48 132 0.0 3.0 0.07 0.61 0.49 98 1008.6
20260509170952 48 157 1.0 3.0 0.06 0.60 0.48 98 1007.8
20260509170051 48 168 0.0 3.0 0.04 0.58 0.46 98 1007.8
20260509170005 48 160 0.0 3.0 0.04 0.57 0.46 98 1008.5
20260509164603 47 150 1.0 4.0 0.02 0.56 0.44 98 1008.5
20260509164251 48 164 2.0 3.0 0.02 0.56 0.44 98 1007.7
20260509163351 48 166 1.0 4.0 0.03 0.56 0.44 98 1007.7
20260509163008 47 159 1.0 5.0 0.03 0.56 0.44 98 1008.5
20260509162451 47 161 2.0 5.0 0.02 0.55 0.43 98 1007.8
20260509161606 47 148 2.0 5.0 0.02 0.54 0.42 98 1008.5
20260509161551 47 164 3.0 4.0 0.02 0.54 0.42 98 1007.7
20260509160004 47 169 1.0 5.0 0.02 0.54 0.42 98 1008.6
20260509154851 47 166 2.0 5.0 0.02 0.54 0.42 98 1007.9
20260509154618 47 172 1.0 6.0 0.02 0.54 0.42 98 1008.8
20260509153951 47 165 2.0 5.0 0.01 0.53 0.41 98 1008.0
20260509153051 47 163 2.0 5.0 0.01 0.53 0.41 98 1008.0
20260509153007 46 156 2.0 5.0 0.01 0.53 0.41 98 1008.8
20260509152151 47 164 2.0 5.0 0.01 0.53 0.41 98 1008.1
20260509151603 46 130 2.0 6.0 0.00 0.52 0.40 98 1009.0
20260509151251 46 160 2.0 5.0 0.00 0.52 0.40 98 1008.2
20260509150351 46 160 3.0 6.0 0.00 0.52 0.40 98 1008.3
20260509150002 46 159 2.0 7.0 0.01 0.52 0.40 98 1009.1
20260509145451 46 166 2.0 6.0 0.01 0.52 0.40 98 1008.3
20260509144613 46 136 3.0 8.0 0.01 0.53 0.40 98 1009.2
20260509144551 46 169 3.0 7.0 0.01 0.53 0.40 98 1008.4
20260509143651 46 169 3.0 7.0 0.01 0.53 0.40 98 1008.3
20260509143005 46 156 2.0 6.0 0.02 0.53 0.40 98 1009.1
20260509142751 46 164 3.0 7.0 0.02 0.53 0.40 98 1008.2
20260509141851 46 166 3.0 7.0 0.02 0.53 0.40 98 1008.1
20260509141602 46 197 4.0 8.0 0.02 0.53 0.40 98 1009.0
20260509140051 46 168 3.0 6.0 0.01 0.52 0.39 98 1008.4
20260509140003 45 163 3.0 5.0 0.01 0.52 0.39 98 1009.2
20260509135151 46 166 3.0 6.0 0.01 0.52 0.39 97 1008.4
20260509134601 45 159 4.0 6.0 0.01 0.52 0.39 97 1009.3
20260509134251 46 164 3.0 6.0 0.02 0.52 0.39 97 1008.5
20260509133351 46 166 4.0 7.0 0.02 0.52 0.39 98 1008.6
20260509133003 45 202 3.0 7.0 0.01 0.51 0.38 98 1009.6
20260509132451 46 167 3.0 6.0 0.02 0.51 0.38 98 1008.7
20260509131603 45 191 2.0 6.0 0.02 0.51 0.38 98 1009.8
20260509130651 46 165 2.0 5.0 0.03 0.51 0.38 98 1008.8
20260509130003 45 193 3.0 5.0 0.04 0.51 0.38 98 1009.8
20260509125752 45 164 1.0 5.0 0.04 0.51 0.38 98 1008.8
20260509124851 45 171 2.0 6.0 0.05 0.51 0.38 98 1008.9
20260509124619 45 147 2.0 5.0 0.05 0.51 0.38 98 1009.9
20260509123952 45 171 2.0 5.0 0.04 0.50 0.37 98 1009.0
20260509123051 45 166 2.0 6.0 0.04 0.50 0.37 98 1008.9
20260509123003 44 162 2.0 6.0 0.04 0.50 0.37 98 1010.0
20260509122151 45 169 3.0 5.0 0.03 0.49 0.36 98 1009.0
20260509121617 44 158 2.0 5.0 0.03 0.49 0.36 98 1010.1
20260509121251 45 168 3.0 6.0 0.02 0.48 0.35 98 1009.1
20260509120351 45 171 2.0 6.0 0.02 0.47 0.34 98 1009.2
20260509120002 44 201 2.0 6.0 0.02 0.47 0.34 98 1010.2
20260509115452 45 169 2.0 4.0 0.01 0.46 0.33 98 1009.1
20260509114602 44 166 1.0 5.0 0.01 0.46 0.33 98 1010.3
20260509114551 45 175 2.0 5.0 0.02 0.46 0.33 98 1009.2
20260509113652 44 174 2.0 4.0 0.03 0.46 0.33 98 1009.1
20260509113003 44 151 1.0 7.0 0.03 0.46 0.33 98 1010.1
20260509112752 44 174 1.0 6.0 0.04 0.46 0.33 98 1009.1
20260509111608 44 173 1.0 4.0 0.07 0.46 0.33 98 1010.2
20260509110051 44 172 3.0 6.0 0.08 0.46 0.32 98 1009.3
20260509110001 44 190 2.0 6.0 0.08 0.45 0.32 98 1010.4
20260509104604 44 158 1.0 7.0 0.08 0.45 0.31 98 1010.4
20260509104251 44 169 2.0 7.0 0.09 0.45 0.31 98 1009.2
20260509103351 44 165 1.0 3.0 0.08 0.44 0.30 98 1009.3
20260509103002 44 149 1.0 3.0 0.07 0.43 0.28 98 1010.6
20260509101551 44 169 1.0 4.0 0.05 0.40 0.26 98 1009.2
20260509101503 44 154 1.0 4.0 0.05 0.40 0.26 98 1010.4
20260509100651 44 164 1.0 3.0 0.03 0.38 0.24 98 1009.2
20260509100104 44 172 1.0 3.0 0.04 0.38 0.24 98 1010.3
20260509094852 44 163 2.0 3.0 0.04 0.37 0.23 98 1009.1
20260509094503 44 197 2.0 3.0 0.04 0.37 0.23 98 1010.3
20260509093955 44 171 2.0 4.0 0.04 0.36 0.22 98 1009.2
20260509093101 44 175 1.0 5.0 0.05 0.36 0.22 98 1010.3
20260509093053 44 171 2.0 5.0 0.06 0.36 0.22 98 1009.1
20260509092151 44 168 2.0 5.0 0.06 0.35 0.21 98 1009.3
20260509091503 44 177 2.0 5.0 0.06 0.35 0.21 98 1010.5
20260509091251 44 170 2.0 6.0 0.06 0.35 0.21 98 1009.2
20260509090351 44 170 2.0 6.0 0.05 0.34 0.21 98 1009.3
20260509090004 44 165 2.0 5.0 0.05 0.34 0.20 98 1010.5
20260509085453 44 173 1.0 4.0 0.05 0.34 0.20 98 1009.1
20260509084604 44 188 0.0 4.0 0.04 0.33 0.19 98 1010.4
20260509083651 44 168 1.0 4.0 0.03 0.32 0.18 98 1009.4
20260509083102 44 151 1.0 4.0 0.02 0.31 0.17 98 1010.7
20260509082751 44 173 2.0 4.0 0.02 0.30 0.16 98 1009.4
20260509081854 44 162 1.0 3.0 0.01 0.29 0.15 98 1009.5
20260509081504 44 157 0.0 4.0 0.02 0.28 0.15 98 1010.8
20260509080953 44 168 2.0 4.0 0.02 0.29 0.15 98 1009.4
20260509080104 44 153 1.0 3.0 0.02 0.28 0.15 98 1010.7
20260509074603 44 158 0.0 4.0 0.02 0.28 0.15 98 1010.9
20260509074251 44 168 1.0 4.0 0.02 0.29 0.15 98 1009.5
20260509073002 44 162 0.0 2.0 0.02 0.28 0.15 98 1010.7
20260509072451 44 162 0.0 2.0 0.01 0.28 0.14 98 1009.4
20260509071607 44 169 0.0 3.0 0.00 0.27 0.13 98 1010.9
20260509071551 44 168 1.0 3.0 0.00 0.27 0.13 98 1009.5
20260509070651 44 168 2.0 3.0 0.00 0.27 0.13 98 1009.8
20260509070003 44 167 2.0 3.0 0.00 0.27 0.13 98 1011.1
20260509065751 44 168 1.0 3.0 0.00 0.27 0.13 98 1009.8
20260509064852 44 170 2.0 4.0 0.01 0.27 0.13 98 1009.8
20260509064609 44 160 1.0 4.0 0.01 0.27 0.13 98 1011.2
20260509063954 44 169 1.0 3.0 0.01 0.27 0.13 98 1009.9
20260509063112 44 162 1.0 3.0 0.02 0.27 0.13 98 1011.5
20260509063051 44 165 1.0 3.0 0.02 0.27 0.13 98 1010.1
20260509062151 44 160 0.0 3.0 0.02 0.27 0.13 97 1010.4
20260509061505 44 151 0.0 2.0 0.03 0.27 0.13 97 1011.9
20260509061252 44 163 1.0 2.0 0.03 0.27 0.13 97 1010.5
20260509060351 44 165 1.0 3.0 0.05 0.27 0.13 97 1010.6
20260509060104 44 185 0.0 3.0 0.05 0.27 0.13 97 1012.1
20260509055451 44 153 0.0 2.0 0.06 0.27 0.13 97 1010.6
20260509054550 44 150 0.0 1.0 0.06 0.26 0.12 97 1010.8
20260509054501 44 143 0.0 1.0 0.06 0.26 0.12 97 1012.3
20260509053650 44 135 0.0 1.0 0.07 0.26 0.12 97 1011.0
20260509053136 44 135 0.0 2.0 0.06 0.25 0.11 97 1012.5
20260509052752 44 140 0.0 1.0 0.06 0.25 0.11 97 1011.0
20260509051503 44 146 0.0 1.0 0.07 0.24 0.10 97 1012.7
20260509050951 44 0 0.0 0.0 0.07 0.23 0.09 97 1011.3
20260509050101 44 148 0.0 1.0 0.07 0.22 0.08 97 1012.8
20260509050051 44 133 0.0 1.0 0.08 0.22 0.08 97 1011.2
20260509045151 44 140 0.0 1.0 0.08 0.21 0.07 97 1011.3
20260509044502 44 149 0.0 2.0 0.08 0.20 0.06 97 1012.8
20260509044251 44 154 0.0 1.0 0.08 0.20 0.06 97 1011.3
20260509043350 44 153 0.0 1.0 0.07 0.19 0.05 97 1011.2
20260509043109 44 155 0.0 1.0 0.07 0.19 0.05 97 1012.7
20260509042450 44 140 0.0 1.0 0.06 0.18 0.04 97 1011.2
20260509041551 45 139 0.0 1.0 0.06 0.17 0.03 97 1011.2
20260509041502 44 139 0.0 1.0 0.06 0.17 0.03 97 1012.7
20260509040128 44 132 0.0 2.0 0.04 0.15 0.01 97 1013.0
20260509035751 45 149 0.0 2.0 0.03 0.14 0.14 97 1011.3
20260509034850 45 197 0.0 4.0 0.03 0.13 0.13 97 1011.4
20260509034502 44 148 0.0 4.0 0.02 0.12 0.12 97 1013.0
20260509033950 45 162 0.0 4.0 0.03 0.12 0.12 96 1011.3
20260509033102 44 128 0.0 1.0 0.04 0.12 0.12 96 1012.6
20260509033050 45 128 0.0 1.0 0.05 0.12 0.12 96 1011.1
20260509032151 45 128 0.0 1.0 0.05 0.11 0.11 96 1011.1
20260509031503 44 128 0.0 1.0 0.06 0.11 0.11 96 1012.8
20260509031250 45 132 0.0 1.0 0.06 0.11 0.11 96 1011.3
20260509030351 45 143 0.0 2.0 0.06 0.11 0.11 96 1011.3
20260509030104 44 151 0.0 2.0 0.06 0.11 0.11 96 1012.9
20260509025450 45 144 1.0 2.0 0.06 0.10 0.10 96 1011.4
20260509024550 45 150 1.0 3.0 0.06 0.10 0.10 96 1011.5
20260509024502 44 158 1.0 3.0 0.06 0.10 0.10 96 1013.1
20260509023650 45 146 0.0 2.0 0.05 0.09 0.09 96 1011.7
20260509023103 44 143 0.0 1.0 0.03 0.07 0.07 96 1013.3
20260509022750 45 0 0.0 0.0 0.03 0.07 0.07 96 1011.8
20260509021850 45 0 0.0 0.0 0.02 0.06 0.06 95 1011.5
20260509021503 44 144 0.0 0.0 0.01 0.05 0.05 95 1013.2
20260509020951 45 0 0.0 0.0 0.01 0.05 0.05 95 1011.7
20260509020050 45 0 0.0 0.0 0.01 0.05 0.05 95 1011.6
20260509015151 45 0 0.0 0.0 0.00 0.05 0.04 95 1011.3
20260509014503 44 144 0.0 1.0 0.00 0.09 0.04 95 1012.9
20260509014251 45 141 0.0 1.0 0.00 0.06 0.04 94 1011.1
20260509013111 45 126 0.0 1.0 0.02 0.09 0.04 94 1012.8
20260509012450 45 132 0.0 1.0 0.02 0.10 0.04 94 1011.0
20260509011503 45 148 0.0 2.0 0.02 0.09 0.04 93 1012.4
20260509010651 45 137 1.0 2.0 0.02 0.10 0.04 93 1010.6
20260509010105 45 106 1.0 3.0 0.02 0.09 0.04 93 1012.2
20260509005750 46 148 2.0 4.0 0.02 0.10 0.04 93 1010.6
20260509004850 46 148 3.0 5.0 0.02 0.10 0.04 92 1010.5
20260509004505 46 142 2.0 5.0 0.02 0.10 0.04 91 1012.0
20260509003950 47 136 3.0 7.0 0.01 0.09 0.03 90 1010.5
20260509003105 48 154 1.0 4.0 0.00 0.08 0.02 88 1011.9
20260509003051 48 142 1.0 4.0 0.00 0.08 0.02 88 1010.5
20260509002150 48 144 0.0 2.0 0.00 0.08 0.02 86 1010.4
20260509001505 48 143 0.0 1.0 0.00 0.08 0.02 85 1011.7
20260509001250 49 132 0.0 1.0 0.00 0.08 0.02 85 1010.2
20260508235452 49 133 0.0 2.0 0.00 0.08 0.02 83 1010.0
20260508234506 49 173 0.0 2.0 0.00 0.08 0.02 82 1011.5
20260508233120 49 100 1.0 4.0 0.00 0.08 0.02 82 1011.4
20260508232750 49 105 1.0 2.0 0.00 0.08 0.02 82 1009.9
20260508231850 50 109 2.0 6.0 0.00 0.08 0.02 80 1009.7
20260508231503 49 123 1.0 5.0 0.00 0.08 0.02 80 1011.2
20260508230951 50 116 2.0 5.0 0.00 0.08 0.02 79 1009.6
20260508230107 50 135 1.0 4.0 0.00 0.08 0.02 79 1010.9
20260508224503 50 75 1.0 4.0 0.00 0.08 0.02 77 1011.1
20260508224250 51 140 2.0 8.0 0.00 0.08 0.02 77 1009.5
20260508223350 51 160 4.0 10.0 0.00 0.08 0.02 76 1009.3
20260508223102 51 200 4.0 10.0 0.00 0.08 0.02 74 1010.8
20260508222451 53 156 4.0 10.0 0.00 0.08 0.02 71 1009.2
20260508221550 55 128 1.0 3.0 0.00 0.08 0.02 59 1009.1
20260508221503 54 128 1.0 3.0 0.00 0.08 0.02 59 1010.7
20260508220650 55 326 1.0 4.0 0.00 0.08 0.02 57 1009.1
20260508220103 55 214 1.0 5.0 0.00 0.08 0.02 57 1010.6
20260508214850 56 159 3.0 6.0 0.00 0.08 0.02 58 1009.1
20260508214502 55 172 3.0 6.0 0.00 0.08 0.02 59 1010.6
20260508213950 56 169 2.0 6.0 0.00 0.08 0.02 58 1009.1
20260508213103 55 153 1.0 5.0 0.00 0.08 0.02 62 1010.7
20260508212150 54 354 1.0 3.0 0.00 0.08 0.02 62 1009.2
20260508211502 53 311 1.0 5.0 0.00 0.08 0.02 63 1010.8
20260508211250 54 331 2.0 5.0 0.00 0.08 0.02 63 1009.2
20260508210351 53 347 2.0 5.0 0.00 0.08 0.02 63 1009.2
20260508210108 53 322 2.0 5.0 0.00 0.08 0.02 61 1010.8
20260508205450 54 333 2.0 4.0 0.00 0.08 0.02 62 1009.3